Franklin, PA

5:56 PM EST on November 19, 2019 (GMT -0500)
Venango Regional

Weather History for KFKL - September, 2019

Change the Weather History Date:

Monday, September 9, 2019

  Actual Average Record
Temperature  
Mean Temperature 60 °F -  
Max Temperature 71 °F 76 °F 96 °F (1933)
Min Temperature 50 °F 53 °F 38 °F (1956)
Degree Days  
Heating Degree Days 5    
Growing Degree Days 10 (Base 50)    
Moisture  
Dew Point 52 °F    
Average Humidity 88    
Maximum Humidity 100    
Minimum Humidity 51    
Precipitation  
Precipitation 0.00 in - - ()
Sea Level Pressure  
Sea Level Pressure 30.26 in    
Wind  
Wind Speed 3 mph (NE)    
Max Wind Speed 6 mph    
Max Gust Speed -    
Visibility 6 miles    
Events Fog    
Averages and records for this station are not official NWS values.
T = Trace of Precipitation, MM = Missing Value Source: NWS Daily Summary

Daily Weather History Graph

Daily Weather History Graph

Search for Another Location

Airport or City:

Astronomy

Sep. 09, 2019 Rise Set
Actual Time 6:53 AM EDT 7:39 PM EDT
Civil Twilight 6:25 AM EDT 8:07 PM EDT
Nautical Twilight 5:52 AM EDT 8:40 PM EDT
Astronomical Twilight 5:17 AM EDT 9:14 PM EDT
Moon 5:36 PM EDT (9/9) 2:20 AM EDT (9/9)
Length of Visible Light 13h 41m
Length of Day
12h 45m
Waxing Gibbous, 83% of the Moon is Illuminated
Sep 9
Waxing Gibbous
Sep 14
Full
Sep 21
Last Quarter
Sep 28
New
Oct 5
First Quarter

Hourly Weather History & Observations

Time (EDT) Temp. Dew Point Humidity Pressure Visibility Wind Dir Wind Speed Gust Speed Precip Events Conditions
12:56 AM 53.1 °F 52.0 °F 96% 30.21 in 10.0 mi NNE 4.6 mph - N/A   Scattered Clouds
1:56 AM 51.1 °F 51.1 °F 100% 30.22 in 8.0 mi NNE 4.6 mph - N/A   Clear
2:56 AM 52.0 °F 51.1 °F 97% 30.22 in 10.0 mi Calm Calm - N/A   Clear
3:56 AM 52.0 °F 51.1 °F 97% 30.22 in 10.0 mi NNE 3.5 mph - N/A   Partly Cloudy
4:56 AM 52.0 °F 51.1 °F 97% 30.22 in 10.0 mi ENE 3.5 mph - N/A   Clear
5:39 AM 51.8 °F 50.0 °F 94% 30.22 in 2.5 mi NE 3.5 mph - N/A   Scattered Clouds
5:43 AM 51.8 °F 50.0 °F 94% 30.22 in 1.0 mi ENE 4.6 mph - N/A   Mostly Cloudy
5:49 AM 51.8 °F 50.0 °F 94% 30.22 in 0.5 mi ENE 4.6 mph - N/A Fog Fog
5:56 AM 50.0 °F 50.0 °F 100% 30.23 in 0.5 mi NE 3.5 mph - N/A Fog Fog
6:17 AM 50.0 °F 50.0 °F 100% 30.23 in 1.0 mi East 3.5 mph - N/A   Overcast
6:25 AM 51.8 °F 50.0 °F 94% 30.23 in 1.2 mi East 3.5 mph - N/A   Overcast
6:48 AM 51.8 °F 50.0 °F 94% 30.23 in 0.8 mi ENE 4.6 mph - N/A   Overcast
6:52 AM 51.8 °F 50.0 °F 94% 30.23 in 0.2 mi NE 4.6 mph - N/A Fog Fog
6:56 AM 51.1 °F 50.0 °F 96% 30.25 in 0.2 mi NE 4.6 mph - N/A Fog Fog
7:49 AM 51.8 °F 51.8 °F 100% 30.26 in 0.8 mi NE 4.6 mph - N/A   Overcast
7:51 AM 51.8 °F 51.8 °F 100% 30.26 in 1.5 mi ENE 5.8 mph - N/A   Overcast
7:53 AM 51.8 °F 51.8 °F 100% 30.26 in 3.0 mi NE 4.6 mph - N/A   Overcast
7:56 AM 51.1 °F 51.1 °F 100% 30.27 in 4.0 mi NE 5.8 mph - N/A   Overcast
8:21 AM 51.8 °F 51.8 °F 100% 30.26 in 1.8 mi ENE 4.6 mph - N/A   Overcast
8:30 AM 51.8 °F 51.8 °F 100% 30.27 in 3.0 mi ENE 4.6 mph - N/A   Overcast
8:56 AM 52.0 °F 52.0 °F 100% 30.28 in 6.0 mi ENE 3.5 mph - N/A   Overcast
9:40 AM 53.6 °F 51.8 °F 94% 30.28 in 10.0 mi NE 5.8 mph - N/A   Overcast
9:56 AM 54.0 °F 52.0 °F 93% 30.30 in 10.0 mi ENE 4.6 mph - N/A   Overcast
10:33 AM 55.4 °F 53.6 °F 94% 30.29 in 10.0 mi NE 4.6 mph - N/A   Mostly Cloudy
10:56 AM 57.0 °F 54.0 °F 89% 30.30 in 10.0 mi ENE 3.5 mph - N/A   Scattered Clouds
11:56 AM 63.0 °F 55.0 °F 75% 30.29 in 10.0 mi Variable 4.6 mph - N/A   Partly Cloudy
12:56 PM 66.9 °F 52.0 °F 59% 30.29 in 10.0 mi Calm Calm - N/A   Mostly Cloudy
1:56 PM 66.9 °F 52.0 °F 59% 30.30 in 10.0 mi Calm Calm - N/A   Overcast
2:56 PM 66.9 °F 54.0 °F 63% 30.30 in 10.0 mi Calm Calm - N/A   Overcast
3:56 PM 69.1 °F 53.1 °F 57% 30.27 in 10.0 mi ESE 4.6 mph - N/A   Mostly Cloudy
4:56 PM 70.0 °F 52.0 °F 53% 30.26 in 10.0 mi Calm Calm - N/A   Clear
5:56 PM 70.0 °F 51.1 °F 51% 30.27 in 10.0 mi Calm Calm - N/A   Clear
6:56 PM 66.9 °F 54.0 °F 63% 30.27 in 10.0 mi Calm Calm - N/A   Clear
7:56 PM 64.0 °F 53.1 °F 67% 30.28 in 10.0 mi Calm Calm - N/A   Clear
8:56 PM 59.0 °F 54.0 °F 83% 30.29 in 10.0 mi Calm Calm - N/A   Clear
9:56 PM 55.9 °F 53.1 °F 90% 30.30 in 10.0 mi Calm Calm - N/A   Clear
10:56 PM 55.9 °F 55.0 °F 97% 30.30 in 10.0 mi North 3.5 mph - N/A   Clear
11:56 PM 55.0 °F 54.0 °F 96% 30.29 in 10.0 mi Calm Calm - N/A   Clear